sat.trackr.live / text

‹ back to catalog

KUIPER-00200

NORAD 67772 · 2026-030J

PAYLOAD ACTIVE UNKNOWN

§ Identity

Operator
Country
US
Launch date
2026-02-12
Launch site
FRGUI
Launch vehicle
Mass (kg)
RCS (m²)

External: N2YO · Heavens-Above · Gunter

§ Orbital elements

Epoch: 2026-05-25T04:23:27.011328Z

Period
94.81 min
Inclination
51.8830°
Eccentricity
0.0002703
Mean motion
15.18806932 rev/d
Perigee alt
507.6 km
Apogee alt
511.3 km
Semi-major
6,887.6 km
B*
5.0364e-4
RAAN
214.8166°
Arg perigee
18.9345°
Mean anomaly
341.1734°
Rev number
1,678

§ Raw data

KUIPER-002001 67772U 26030J   26145.18295152  .00010314  00000+0  50364-3 0  99902 67772  51.8830 214.8166 0002703  18.9345 341.1734 15.18806932 16784

JSON: /api/v1/satellites/67772 · /tle

For live sub-satellite position, see the globe view (requires WebGL).

§ Visibility from observer

Set your observer location to see the next 7 days of passes ≥ 10°. The values pass through the URL so the page stays shareable.

No JS? Fill the form by hand. The geolocation button needs JavaScript.